Location: San Vito
(41.8833°N, 12.9833°E)
Time: 23:59:17
(UTC+00:00)

Cosmos 2298 Rocket - Pass Details

Date: 17 November 2019
Orbit: 777 x 783 km, 74.0° (Epoch: 09 December)

Event Time Altitude Azimuth Distance (km) Brightness Sun altitude
Rises 04:36:29 0° 202° (SSW) 3,249 7.1 -15.5°
Reaches altitude 10° 04:38:51 10° 204° (SSW) 2,325 6.4 -15.0°
Maximum altitude 04:44:08 77° 289° (WNW) 802 3.9 -14.1°
Drops below altitude 10° 04:49:28 10° 17° (NNE) 2,337 6.6 -13.1°
Sets 04:51:52 0° 19° (NNE) 3,268 7.3 -12.7°
